| time (UTC) | temp F | wind direction | speed MPH | gust MPH | rain 1hr in | rain 24hr in | rain mn in | humidity % | barometer mb |
| 20260503222004 | 52 | 195 | 0.0 | 1.0 | 0.00 | 0.00 | 0.00 | 92 | 1011.7 |
| 20260503221004 | 52 | 195 | 1.0 | 3.0 | 0.00 | 0.00 | 0.00 | 92 | 1011.5 |
| 20260503220004 | 52 | 168 | 0.0 | 2.0 | 0.00 | 0.00 | 0.00 | 91 | 1011.6 |
| 20260503215004 | 52 | 168 | 1.0 | 2.0 | 0.00 | 0.00 | 0.00 | 91 | 1011.5 |
| 20260503213505 | 52 | 168 | 1.0 | 2.0 | 0.00 | 0.00 | 0.00 | 90 | 1011.3 |
| 20260503213005 | 52 | 168 | 1.0 | 2.0 | 0.00 | 0.00 | 0.00 | 90 | 1011.3 |
| 20260503211505 | 53 | 181 | 1.0 | 3.0 | 0.00 | 0.00 | 0.00 | 90 | 1011.2 |
| 20260503211005 | 53 | 187 | 0.0 | 2.0 | 0.00 | 0.00 | 0.00 | 90 | 1011.2 |
| 20260503210505 | 53 | 187 | 1.0 | 3.0 | 0.00 | 0.00 | 0.00 | 89 | 1011.1 |
| 20260503204504 | 54 | 161 | 1.0 | 5.0 | 0.00 | 0.00 | 0.00 | 89 | 1011.1 |
| 20260503203504 | 54 | 175 | 2.0 | 5.0 | 0.00 | 0.00 | 0.00 | 89 | 1010.9 |
| 20260503203005 | 54 | 225 | 2.0 | 3.0 | 0.00 | 0.00 | 0.00 | 88 | 1010.8 |
| 20260503201505 | 55 | 162 | 2.0 | 3.0 | 0.00 | 0.00 | 0.00 | 87 | 1010.6 |
| 20260503201005 | 55 | 170 | 0.0 | 3.0 | 0.00 | 0.00 | 0.00 | 86 | 1010.5 |
| 20260503200505 | 55 | 195 | 1.0 | 3.0 | 0.00 | 0.00 | 0.00 | 86 | 1010.4 |
| 20260503195007 | 55 | 197 | 3.0 | 6.0 | 0.00 | 0.00 | 0.00 | 86 | 1010.3 |
| 20260503194004 | 56 | 174 | 2.0 | 6.0 | 0.00 | 0.00 | 0.00 | 86 | 1010.2 |
| 20260503193504 | 56 | 179 | 2.0 | 6.0 | 0.00 | 0.00 | 0.00 | 86 | 1010.2 |
| 20260503192504 | 56 | 150 | 3.0 | 6.0 | 0.00 | 0.00 | 0.00 | 86 | 1010.1 |
| 20260503192005 | 56 | 181 | 3.0 | 6.0 | 0.00 | 0.00 | 0.00 | 86 | 1010.2 |
| 20260503185505 | 57 | 173 | 3.0 | 6.0 | 0.00 | 0.00 | 0.00 | 86 | 1010.1 |
| 20260503185005 | 57 | 168 | 3.0 | 6.0 | 0.00 | 0.00 | 0.00 | 85 | 1010.1 |
| 20260503184505 | 57 | 172 | 3.0 | 6.0 | 0.00 | 0.00 | 0.00 | 85 | 1010.0 |
| 20260503184004 | 57 | 174 | 3.0 | 5.0 | 0.00 | 0.00 | 0.00 | 85 | 1010.0 |
| 20260503182505 | 57 | 189 | 3.0 | 7.0 | 0.00 | 0.00 | 0.00 | 85 | 1009.9 |
| 20260503181505 | 57 | 194 | 3.0 | 9.0 | 0.00 | 0.00 | 0.00 | 85 | 1009.8 |
| 20260503180505 | 58 | 169 | 3.0 | 7.0 | 0.00 | 0.00 | 0.00 | 85 | 1009.8 |
| 20260503175504 | 58 | 146 | 3.0 | 7.0 | 0.00 | 0.00 | 0.00 | 85 | 1009.7 |
| 20260503175005 | 58 | 185 | 5.0 | 8.0 | 0.00 | 0.00 | 0.00 | 84 | 1009.7 |
| 20260503174505 | 58 | 219 | 5.0 | 8.0 | 0.00 | 0.00 | 0.00 | 84 | 1009.6 |
| 20260503174005 | 59 | 184 | 3.0 | 6.0 | 0.00 | 0.00 | 0.00 | 84 | 1009.6 |
| 20260503173504 | 59 | 218 | 4.0 | 7.0 | 0.00 | 0.00 | 0.00 | 83 | 1009.5 |
| 20260503172004 | 59 | 173 | 4.0 | 8.0 | 0.00 | 0.00 | 0.00 | 82 | 1009.5 |
| 20260503171004 | 60 | 204 | 3.0 | 7.0 | 0.00 | 0.00 | 0.00 | 81 | 1009.5 |
| 20260503170504 | 60 | 182 | 5.0 | 7.0 | 0.00 | 0.00 | 0.00 | 81 | 1009.5 |
| 20260503131005 | 62 | 158 | 4.0 | 12.0 | 0.00 | 0.23 | 0.00 | 75 | 1009.9 |
| 20260503110505 | 61 | 181 | 2.0 | 3.0 | 0.00 | 0.23 | 0.00 | 77 | 1010.1 |
| 20260503081504 | 55 | 161 | 0.0 | 3.0 | 0.00 | 0.23 | 0.00 | 91 | 1010.2 |
| 20260503081004 | 55 | 191 | 0.0 | 3.0 | 0.00 | 0.23 | 0.00 | 91 | 1010.3 |
| 20260503071504 | 54 | 355 | 0.0 | 2.0 | 0.00 | 0.23 | 0.00 | 96 | 1010.2 |
| 20260503071004 | 54 | 2 | 1.0 | 2.0 | 0.00 | 0.23 | 0.00 | 96 | 1010.1 |
| 20260503070505 | 54 | 34 | 1.0 | 3.0 | 0.00 | 0.23 | 0.00 | 96 | 1010.1 |
| 20260503055004 | 52 | 319 | 1.0 | 2.0 | 0.00 | 0.23 | 0.00 | 97 | 1009.9 |
| 20260503054004 | 52 | 318 | 0.0 | 3.0 | 0.00 | 0.23 | 0.00 | 96 | 1009.7 |
| 20260503053505 | 52 | 318 | 1.0 | 3.0 | 0.00 | 0.23 | 0.00 | 96 | 1009.7 |
| 20260503052505 | 52 | 317 | 1.0 | 3.0 | 0.00 | 0.23 | 0.00 | 96 | 1009.7 |
| 20260503052005 | 52 | 314 | 2.0 | 3.0 | 0.00 | 0.23 | 0.00 | 96 | 1009.7 |
| 20260503045005 | 52 | 333 | 0.0 | 1.0 | 0.00 | 0.23 | 0.00 | 96 | 1009.7 |
| 20260503044504 | 52 | 333 | 0.0 | 1.0 | 0.00 | 0.23 | 0.00 | 96 | 1009.6 |
| 20260503044004 | 52 | 333 | 0.0 | 2.0 | 0.00 | 0.23 | 0.00 | 96 | 1009.6 |
| 20260503043504 | 52 | 333 | 1.0 | 2.0 | 0.00 | 0.23 | 0.00 | 96 | 1009.6 |
| 20260503042504 | 52 | 333 | 1.0 | 3.0 | 0.00 | 0.23 | 0.00 | 96 | 1009.7 |
| 20260503042005 | 52 | 333 | 2.0 | 3.0 | 0.00 | 0.23 | 0.00 | 96 | 1009.7 |
| 20260503041004 | 53 | 330 | 0.0 | 3.0 | 0.00 | 0.23 | 0.00 | 96 | 1009.7 |
| 20260503040504 | 53 | 331 | 1.0 | 5.0 | 0.00 | 0.23 | 0.00 | 96 | 1009.6 |
| 20260503040005 | 53 | 315 | 1.0 | 5.0 | 0.00 | 0.23 | 0.00 | 96 | 1009.6 |
| 20260503035004 | 53 | 325 | 0.0 | 2.0 | 0.00 | 0.23 | 0.00 | 97 | 1009.6 |
| 20260503034504 | 53 | 325 | 0.0 | 3.0 | 0.00 | 0.23 | 0.00 | 96 | 1009.6 |
| 20260503034004 | 53 | 325 | 0.0 | 3.0 | 0.00 | 0.23 | 0.00 | 96 | 1009.6 |
| 20260503033504 | 53 | 317 | 1.0 | 3.0 | 0.00 | 0.23 | 0.00 | 96 | 1009.7 |
| 20260503033005 | 53 | 313 | 0.0 | 3.0 | 0.00 | 0.23 | 0.00 | 96 | 1009.7 |
| 20260503031504 | 53 | 276 | 1.0 | 3.0 | 0.00 | 0.23 | 0.00 | 97 | 1009.6 |
| 20260503030505 | 53 | 264 | 1.0 | 2.0 | 0.00 | 0.23 | 0.00 | 96 | 1009.6 |
| 20260503030004 | 53 | 226 | 1.0 | 3.0 | 0.00 | 0.23 | 0.00 | 96 | 1009.7 |
| 20260503024505 | 53 | 217 | 2.0 | 3.0 | 0.00 | 0.23 | 0.00 | 96 | 1009.6 |
| 20260503024004 | 53 | 223 | 1.0 | 3.0 | 0.00 | 0.23 | 0.00 | 96 | 1009.7 |
| 20260503022504 | 53 | 230 | 1.0 | 3.0 | 0.00 | 0.23 | 0.00 | 96 | 1009.8 |
| 20260503021505 | 53 | 198 | 0.0 | 3.0 | 0.00 | 0.23 | 0.00 | 96 | 1009.9 |
| 20260503020506 | 53 | 204 | 1.0 | 3.0 | 0.00 | 0.23 | 0.00 | 96 | 1010.0 |
| 20260503015504 | 53 | 213 | 1.0 | 3.0 | 0.00 | 0.23 | 0.00 | 96 | 1010.1 |
| 20260503013004 | 53 | 286 | 0.0 | 0.0 | 0.00 | 0.23 | 0.00 | 96 | 1010.2 |
| 20260503012505 | 53 | 286 | 0.0 | 2.0 | 0.00 | 0.23 | 0.00 | 96 | 1010.1 |
| 20260503011504 | 52 | 286 | 1.0 | 3.0 | 0.00 | 0.23 | 0.00 | 96 | 1010.2 |
| 20260503011005 | 52 | 301 | 1.0 | 3.0 | 0.00 | 0.23 | 0.00 | 96 | 1010.1 |
| 20260503010504 | 52 | 299 | 1.0 | 3.0 | 0.00 | 0.23 | 0.00 | 96 | 1010.1 |
| 20260503004005 | 52 | 285 | 0.0 | 2.0 | 0.00 | 0.23 | 0.00 | 95 | 1010.4 |
| 20260503001504 | 52 | 292 | 0.0 | 1.0 | 0.00 | 0.23 | 0.00 | 94 | 1010.5 |
| 20260503001005 | 52 | 292 | 0.0 | 1.0 | 0.00 | 0.23 | 0.00 | 94 | 1010.5 |
| 20260503000505 | 53 | 292 | 0.0 | 1.0 | 0.00 | 0.23 | 0.00 | 94 | 1010.6 |
| 20260503000005 | 53 | 292 | 0.0 | 1.0 | 0.00 | 0.23 | 0.00 | 94 | 1010.6 |
| 20260502235504 | 53 | 292 | 1.0 | 1.0 | 0.00 | 0.23 | 0.00 | 94 | 1010.7 |
| 20260502234505 | 53 | 292 | 0.0 | 1.0 | 0.00 | 0.23 | 0.00 | 95 | 1010.6 |
| 20260502234004 | 53 | 292 | 0.0 | 1.0 | 0.00 | 0.23 | 0.00 | 95 | 1010.6 |
| 20260502232504 | 54 | 292 | 0.0 | 2.0 | 0.00 | 0.23 | 0.00 | 95 | 1010.9 |
| 20260502232005 | 54 | 292 | 0.0 | 2.0 | 0.00 | 0.23 | 0.00 | 95 | 1011.0 |
| 20260502231005 | 54 | 316 | 0.0 | 2.0 | 0.00 | 0.23 | 0.00 | 95 | 1010.9 |
| 20260502230504 | 54 | 316 | 1.0 | 3.0 | 0.00 | 0.23 | 0.00 | 95 | 1010.9 |
| 20260502225504 | 54 | 292 | 1.0 | 2.0 | 0.00 | 0.23 | 0.23 | 95 | 1010.8 |
| 20260502224004 | 54 | 265 | 1.0 | 3.0 | 0.00 | 0.23 | 0.23 | 95 | 1010.8 |
| 20260502223504 | 54 | 276 | 1.0 | 2.0 | 0.00 | 0.23 | 0.23 | 95 | 1010.9 |
| 20260502222504 | 54 | 307 | 0.0 | 0.0 | 0.00 | 0.23 | 0.23 | 95 | 1011.0 |